Track COSMOS 1289 now! 10-day predictions COSMOS 1289 is classified as:
1 12638U 81074C 21110.60317344 -.00000015 00000-0 86970-5 0 9995 2 12638 74.0312 148.1244 0024169 64.5258 106.9435 12.54683846818546